Location: Aranbee
(34.0885°N, 118.2342°W)
Time: 13:09:27
(UTC+00:00)

Tiros 1 - Pass Details

Date: 03 December 2020
Orbit: 630 x 663 km, 48.4° (Epoch: 21 January)

Event Time Altitude Azimuth Distance (km) Brightness Sun altitude
Rises 00:36:49 0° 303° (WNW) 2,993 11.0 0.4°
Reaches altitude 10° 00:40:16 10° 329° (NNW) 2,077 9.8 -0.3°
Maximum altitude 00:42:49 14° 1° (N) 1,807 9.2 -0.7°
Drops below altitude 10° 00:45:23 10° 34° (NNE) 2,070 9.2 -1.2°
Enters shadow 00:48:13 - 56° (NE) 2,794 9.7 -1.7°
Sets 00:48:48 0° 59° (ENE) 2,974 - -1.9°
